Time,TemperatureF,DewpointF,PressureIn,WindDirection,WindDirectionDegrees,WindSpeedMPH,WindSpeedGustMPH,Humidity,HourlyPrecipIn,Conditions,Clouds,dailyrainin,SoftwareType,DateUTC
2013-03-23 00:12:00,63.7,60.7,29.85,ESE,112,6.8,-999.0,90,-99.99,,,0.01,Acu-Link.com,2013-03-23 04:12:00,
2013-03-23 00:43:00,63.5,60.8,29.84,East,90,2.2,-999.0,91,-99.99,,,0.05,Acu-Link.com,2013-03-23 04:43:00,
2013-03-23 00:58:00,63.5,60.8,29.83,ESE,112,1.1,-999.0,91,-99.99,,,0.05,Acu-Link.com,2013-03-23 04:58:00,
2013-03-23 01:14:00,63.5,61.1,29.83,ESE,112,0.0,-999.0,92,-99.99,,,0.05,Acu-Link.com,2013-03-23 05:14:00,
2013-03-23 01:29:00,63.7,61.3,29.82,East,90,3.2,-999.0,92,-99.99,,,0.05,Acu-Link.com,2013-03-23 05:29:00,
2013-03-23 01:44:00,63.7,61.3,29.82,ENE,67,2.7,-999.0,92,-99.99,,,0.05,Acu-Link.com,2013-03-23 05:44:00,
2013-03-23 01:59:00,63.7,61.3,29.82,ESE,112,0.0,-999.0,92,-99.99,,,0.05,Acu-Link.com,2013-03-23 05:59:00,
2013-03-23 02:14:00,63.5,61.1,29.81,ESE,112,0.0,-999.0,92,-99.99,,,0.05,Acu-Link.com,2013-03-23 06:14:00,
2013-03-23 02:30:00,63.7,61.3,29.81,ESE,112,0.0,-999.0,92,-99.99,,,0.05,Acu-Link.com,2013-03-23 06:30:00,
2013-03-23 02:45:00,63.9,61.5,29.81,ESE,112,1.7,-999.0,92,-99.99,,,0.05,Acu-Link.com,2013-03-23 06:45:00,
2013-03-23 03:00:00,63.9,61.5,29.80,ESE,112,0.0,-999.0,92,-99.99,,,0.05,Acu-Link.com,2013-03-23 07:00:00,
2013-03-23 03:16:00,63.9,61.8,29.79,ESE,112,0.0,-999.0,93,-99.99,,,0.05,Acu-Link.com,2013-03-23 07:16:00,
2013-03-23 03:31:00,63.9,61.8,29.79,ESE,112,0.0,-999.0,93,-99.99,,,0.05,Acu-Link.com,2013-03-23 07:31:00,
2013-03-23 03:46:00,63.9,61.8,29.79,SSW,202,0.0,-999.0,93,-99.99,,,0.05,Acu-Link.com,2013-03-23 07:46:00,
2013-03-23 04:02:00,64.2,62.1,29.78,ESE,112,0.0,-999.0,93,-99.99,,,0.06,Acu-Link.com,2013-03-23 08:02:00,
2013-03-23 04:17:00,64.2,62.1,29.77,SSE,157,0.0,-999.0,93,-99.99,,,0.06,Acu-Link.com,2013-03-23 08:17:00,
2013-03-23 04:32:00,64.4,62.3,29.76,East,90,1.1,-999.0,93,-99.99,,,0.06,Acu-Link.com,2013-03-23 08:32:00,
2013-03-23 04:47:00,64.9,62.8,29.76,ESE,112,1.1,-999.0,93,-99.99,,,0.06,Acu-Link.com,2013-03-23 08:47:00,
2013-03-23 05:02:00,65.5,63.4,29.76,SW,225,1.1,-999.0,93,-99.99,,,0.06,Acu-Link.com,2013-03-23 09:02:00,
2013-03-23 05:17:00,65.5,63.4,29.76,SSE,157,2.2,-999.0,93,-99.99,,,0.06,Acu-Link.com,2013-03-23 09:17:00,
2013-03-23 05:33:00,65.5,63.7,29.77,SSE,157,1.1,-999.0,94,-99.99,,,0.06,Acu-Link.com,2013-03-23 09:33:00,
2013-03-23 05:48:00,65.7,63.9,29.76,SE,135,1.7,-999.0,94,-99.99,,,0.06,Acu-Link.com,2013-03-23 09:48:00,
2013-03-23 06:04:00,65.7,63.9,29.77,South,180,1.1,-999.0,94,-99.99,,,0.06,Acu-Link.com,2013-03-23 10:04:00,
2013-03-23 06:19:00,65.7,63.9,29.77,SE,135,1.1,-999.0,94,-99.99,,,0.06,Acu-Link.com,2013-03-23 10:19:00,
2013-03-23 06:35:00,65.5,63.7,29.78,ESE,112,0.0,-999.0,94,-99.99,,,0.06,Acu-Link.com,2013-03-23 10:35:00,
2013-03-23 06:50:00,65.5,63.7,29.78,ESE,112,1.7,-999.0,94,-99.99,,,0.06,Acu-Link.com,2013-03-23 10:50:00,
2013-03-23 07:05:00,65.3,63.5,29.78,SSE,157,0.0,-999.0,94,-99.99,,,0.06,Acu-Link.com,2013-03-23 11:05:00,
2013-03-23 07:20:00,65.1,63.3,29.78,ESE,112,1.1,-999.0,94,-99.99,,,0.06,Acu-Link.com,2013-03-23 11:20:00,
2013-03-23 07:51:00,65.5,63.7,29.79,South,180,1.7,-999.0,94,-99.99,,,0.06,Acu-Link.com,2013-03-23 11:51:00,
2013-03-23 08:06:00,65.7,63.9,29.79,ESE,112,2.7,-999.0,94,-99.99,,,0.06,Acu-Link.com,2013-03-23 12:06:00,
2013-03-23 08:22:00,66.2,64.4,29.79,ESE,112,1.1,-999.0,94,-99.99,,,0.06,Acu-Link.com,2013-03-23 12:22:00,
2013-03-23 08:37:00,67.3,65.5,29.79,NE,45,0.0,-999.0,94,-99.99,,,0.06,Acu-Link.com,2013-03-23 12:37:00,
2013-03-23 09:08:00,70.0,68.5,29.79,ESE,112,0.0,-999.0,95,-99.99,,,0.06,Acu-Link.com,2013-03-23 13:08:00,
2013-03-23 09:23:00,72.3,69.2,29.78,SSW,202,1.1,-999.0,90,-99.99,,,0.06,Acu-Link.com,2013-03-23 13:23:00,
2013-03-23 09:38:00,73.0,69.2,29.78,South,180,1.7,-999.0,88,-99.99,,,0.06,Acu-Link.com,2013-03-23 13:38:00,
2013-03-23 09:53:00,74.3,70.2,29.78,SE,135,2.2,-999.0,87,-99.99,,,0.06,Acu-Link.com,2013-03-23 13:53:00,
2013-03-23 10:08:00,77.9,70.8,29.76,ESE,112,6.3,-999.0,79,-99.99,,,0.07,Acu-Link.com,2013-03-23 14:08:00,
2013-03-23 10:24:00,79.2,71.3,29.77,ESE,112,1.7,-999.0,77,-99.99,,,0.07,Acu-Link.com,2013-03-23 14:24:00,
2013-03-23 10:39:00,77.4,69.2,29.76,SSE,157,6.8,-999.0,76,-99.99,,,0.07,Acu-Link.com,2013-03-23 14:39:00,
2013-03-23 10:54:00,78.3,69.7,29.75,SSW,202,5.3,-999.0,75,-99.99,,,0.07,Acu-Link.com,2013-03-23 14:54:00,
2013-03-23 11:10:00,78.3,69.3,29.76,SW,225,4.2,-999.0,74,-99.99,,,0.07,Acu-Link.com,2013-03-23 15:10:00,
2013-03-23 11:25:00,81.1,71.2,29.76,SSW,202,1.7,-999.0,72,-99.99,,,0.07,Acu-Link.com,2013-03-23 15:25:00,
2013-03-23 11:40:00,81.9,71.6,29.76,ESE,112,1.7,-999.0,71,-99.99,,,0.07,Acu-Link.com,2013-03-23 15:40:00,
2013-03-23 11:56:00,81.5,69.9,29.76,ENE,67,1.1,-999.0,68,-99.99,,,0.07,Acu-Link.com,2013-03-23 15:56:00,
2013-03-23 12:26:00,80.6,69.5,29.75,South,180,4.7,-999.0,69,-99.99,,,0.07,Acu-Link.com,2013-03-23 16:26:00,
2013-03-23 12:42:00,80.4,69.3,29.75,SSW,202,0.0,-999.0,69,-99.99,,,0.07,Acu-Link.com,2013-03-23 16:42:00,
2013-03-23 12:57:00,82.9,70.3,29.74,SW,225,3.7,-999.0,66,-99.99,,,0.07,Acu-Link.com,2013-03-23 16:57:00,
2013-03-23 13:13:00,83.7,70.2,29.73,South,180,1.7,-999.0,64,-99.99,,,0.07,Acu-Link.com,2013-03-23 17:13:00,
2013-03-23 13:28:00,84.6,71.1,29.73,NW,315,0.0,-999.0,64,-99.99,,,0.07,Acu-Link.com,2013-03-23 17:28:00,
2013-03-23 13:43:00,83.8,69.4,29.72,SSW,202,0.0,-999.0,62,-99.99,,,0.07,Acu-Link.com,2013-03-23 17:43:00,
2013-03-23 13:59:00,86.0,70.5,29.71,WSW,247,3.7,-999.0,60,-99.99,,,0.07,Acu-Link.com,2013-03-23 17:59:00,
2013-03-23 14:14:00,85.6,69.6,29.70,SSW,202,3.7,-999.0,59,-99.99,,,0.07,Acu-Link.com,2013-03-23 18:14:00,
2013-03-23 14:29:00,86.5,69.9,29.69,SW,225,5.8,-999.0,58,-99.99,,,0.07,Acu-Link.com,2013-03-23 18:29:00,
2013-03-23 14:45:00,84.4,69.0,29.69,WSW,247,2.7,-999.0,60,-99.99,,,0.07,Acu-Link.com,2013-03-23 18:45:00,
2013-03-23 15:00:00,85.8,69.3,29.68,SSW,202,4.7,-999.0,58,-99.99,,,0.07,Acu-Link.com,2013-03-23 19:00:00,
2013-03-23 15:15:00,85.6,68.1,29.67,SSW,202,5.8,-999.0,56,-99.99,,,0.07,Acu-Link.com,2013-03-23 19:15:00,
2013-03-23 15:30:00,85.8,67.7,29.67,SW,225,5.3,-999.0,55,-99.99,,,0.07,Acu-Link.com,2013-03-23 19:30:00,
2013-03-23 16:01:00,85.1,67.6,29.65,West,270,3.2,-999.0,56,-99.99,,,0.07,Acu-Link.com,2013-03-23 20:01:00,
2013-03-23 16:32:00,85.3,67.8,29.64,West,270,5.8,-999.0,56,-99.99,,,0.07,Acu-Link.com,2013-03-23 20:32:00,
2013-03-23 17:02:00,84.4,67.0,29.63,South,180,6.8,-999.0,56,-99.99,,,0.07,Acu-Link.com,2013-03-23 21:02:00,
2013-03-23 17:17:00,83.5,66.6,29.63,ESE,112,7.3,-999.0,57,-99.99,,,0.07,Acu-Link.com,2013-03-23 21:17:00,
2013-03-23 17:33:00,82.9,66.1,29.63,SW,225,4.7,-999.0,57,-99.99,,,0.07,Acu-Link.com,2013-03-23 21:33:00,
2013-03-23 17:48:00,82.4,66.6,29.64,SW,225,5.8,-999.0,59,-99.99,,,0.07,Acu-Link.com,2013-03-23 21:48:00,
2013-03-23 18:03:00,82.2,66.4,29.64,SSW,202,8.9,-999.0,59,-99.99,,,0.07,Acu-Link.com,2013-03-23 22:03:00,
2013-03-23 18:18:00,81.7,66.4,29.64,SSW,202,6.3,-999.0,60,-99.99,,,0.07,Acu-Link.com,2013-03-23 22:18:00,
2013-03-23 18:33:00,81.1,66.4,29.65,ESE,112,4.2,-999.0,61,-99.99,,,0.07,Acu-Link.com,2013-03-23 22:33:00,
2013-03-23 18:49:00,81.0,66.3,29.65,SW,225,2.2,-999.0,61,-99.99,,,0.07,Acu-Link.com,2013-03-23 22:49:00,
2013-03-23 19:04:00,80.4,66.2,29.66,SSW,202,2.2,-999.0,62,-99.99,,,0.07,Acu-Link.com,2013-03-23 23:04:00,
2013-03-23 19:20:00,79.5,65.8,29.66,SSW,202,3.2,-999.0,63,-99.99,,,0.07,Acu-Link.com,2013-03-23 23:20:00,
2013-03-23 19:35:00,78.6,65.4,29.66,SSW,202,2.7,-999.0,64,-99.99,,,0.07,Acu-Link.com,2013-03-23 23:35:00,
2013-03-23 19:50:00,77.9,65.6,29.66,NNW,337,0.0,-999.0,66,-99.99,,,0.07,Acu-Link.com,2013-03-23 23:50:00,
2013-03-23 20:06:00,77.0,65.2,29.66,SW,225,0.0,-999.0,67,-99.99,,,0.07,Acu-Link.com,2013-03-24 00:06:00,
2013-03-23 20:21:00,76.1,65.2,29.67,SSW,202,0.0,-999.0,69,-99.99,,,0.07,Acu-Link.com,2013-03-24 00:21:00,
2013-03-23 20:36:00,75.6,65.1,29.67,SSW,202,0.0,-999.0,70,-99.99,,,0.07,Acu-Link.com,2013-03-24 00:36:00,
2013-03-23 21:07:00,74.7,65.5,29.68,SSW,202,0.0,-999.0,73,-99.99,,,0.07,Acu-Link.com,2013-03-24 01:07:00,
2013-03-23 21:22:00,74.1,65.7,29.69,SSW,202,0.0,-999.0,75,-99.99,,,0.07,Acu-Link.com,2013-03-24 01:22:00,
2013-03-23 21:38:00,73.8,66.1,29.69,South,180,0.0,-999.0,77,-99.99,,,0.07,Acu-Link.com,2013-03-24 01:38:00,
2013-03-23 21:53:00,73.2,66.3,29.70,SSW,202,0.0,-999.0,79,-99.99,,,0.07,Acu-Link.com,2013-03-24 01:53:00,
2013-03-23 22:08:00,72.1,65.6,29.71,SSW,202,0.0,-999.0,80,-99.99,,,0.07,Acu-Link.com,2013-03-24 02:08:00,
2013-03-23 22:23:00,71.8,65.6,29.71,SSW,202,0.0,-999.0,81,-99.99,,,0.07,Acu-Link.com,2013-03-24 02:23:00,
2013-03-23 22:39:00,71.6,66.2,29.71,South,180,0.0,-999.0,83,-99.99,,,0.07,Acu-Link.com,2013-03-24 02:39:00,
2013-03-23 22:54:00,71.6,66.2,29.72,SSW,202,0.0,-999.0,83,-99.99,,,0.07,Acu-Link.com,2013-03-24 02:54:00,
2013-03-23 23:09:00,71.6,66.8,29.71,ESE,112,0.0,-999.0,85,-99.99,,,0.07,Acu-Link.com,2013-03-24 03:09:00,
2013-03-23 23:24:00,72.0,67.6,29.71,ESE,112,0.0,-999.0,86,-99.99,,,0.07,Acu-Link.com,2013-03-24 03:24:00,
2013-03-23 23:40:00,72.3,67.9,29.70,ESE,112,1.1,-999.0,86,-99.99,,,0.07,Acu-Link.com,2013-03-24 03:40:00,
2013-03-23 23:55:00,72.5,68.1,29.69,SE,135,0.0,-999.0,86,-99.99,,,0.07,Acu-Link.com,2013-03-24 03:55:00,